FW2273 Weather Reports


time (UTC)temp
F
wind
direction
speed
knots
gust
knots
rain 1hr
in
rain 24hr
in
rain mn
in
humidity
%
barometer
mb
20260505093053 46 90 0.0 0.0 0.00 0.00 0.00 89 1012.3
20260505091616 46 90 0.0 0.0 0.00 0.00 0.00 89 1012.2
20260505090104 46 90 0.0 0.0 0.00 0.00 0.00 88 1012.4
20260505084602 47 90 0.0 0.0 0.00 0.00 0.00 88 1012.2
20260505083100 47 90 0.0 0.0 0.00 0.00 0.00 87 1012.2
20260505081555 47 90 0.0 0.0 0.00 0.00 0.00 86 1012.1
20260505080019 48 90 0.0 0.0 0.00 0.00 0.00 86 1011.8
20260505074509 48 90 0.0 0.0 0.00 0.00 0.00 85 1011.9
20260505073013 49 90 0.0 0.0 0.00 0.00 0.00 84 1011.8
20260505071503 49 90 0.0 0.0 0.00 0.00 0.00 83 1011.8
20260505070106 50 90 0.0 0.0 0.00 0.00 0.00 82 1011.8
20260505064603 51 90 0.0 0.0 0.00 0.00 0.00 82 1012.0
20260505063055 51 90 0.0 0.0 0.00 0.00 0.00 81 1011.9
20260505061557 52 90 0.0 0.0 0.00 0.00 0.00 81 1011.9
20260505060059 52 90 0.0 0.0 0.00 0.00 0.00 80 1012.0
20260505054552 52 90 0.0 0.0 0.00 0.00 0.00 81 1012.0
20260505053046 52 90 0.0 0.0 0.00 0.00 0.00 81 1012.1
20260505051548 53 90 0.0 0.0 0.00 0.00 0.00 80 1012.1
20260505041549 54 90 0.0 0.0 0.00 0.00 0.00 78 1012.0
20260505040036 54 90 0.0 0.0 0.00 0.00 0.00 80 1012.0
20260505034534 55 90 0.0 0.0 0.00 0.00 0.00 80 1012.2
20260505033034 55 90 0.0 0.0 0.00 0.00 0.00 78 1012.2
20260505031528 55 90 0.0 1.7 0.00 0.00 0.00 78 1012.3
20260505030026 55 90 0.0 1.7 0.00 0.00 0.00 78 1012.5
20260505024524 56 90 0.0 0.0 0.00 0.00 0.00 78 1012.5
20260505023024 57 90 0.0 0.0 0.00 0.00 0.00 78 1012.3
20260505021523 57 90 0.0 1.7 0.00 0.00 0.00 77 1012.2
20260505020033 58 90 0.0 0.9 0.00 0.00 0.00 77 1012.3
20260505014532 58 90 0.0 1.7 0.00 0.00 0.00 75 1012.0
20260505013026 59 90 0.0 1.7 0.00 0.00 0.00 74 1011.7
20260505011526 59 90 0.0 2.6 0.00 0.00 0.00 75 1011.6
20260505010018 60 104 0.0 0.9 0.00 0.00 0.00 73 1011.4
20260505004518 61 104 0.0 1.7 0.00 0.00 0.00 70 1011.0
20260505003023 63 83 0.0 1.7 0.00 0.00 0.00 67 1010.8
20260505001514 64 36 0.9 1.7 0.00 0.00 0.00 64 1010.6
20260505000013 65 34 0.0 1.7 0.00 0.00 0.00 66 1010.6
20260504234512 67 355 0.0 2.6 0.00 0.00 0.00 58 1010.4
20260504233042 68 299 0.0 2.6 0.00 0.00 0.00 55 1010.4
20260504231541 69 53 0.0 1.7 0.00 0.00 0.00 52 1010.4
20260504230037 69 319 0.9 3.5 0.00 0.00 0.00 49 1010.1
20260504224537 71 304 0.0 1.7 0.00 0.00 0.00 50 1010.0
20260504223055 72 81 0.0 2.6 0.00 0.00 0.00 46 1010.0
20260504221535 73 355 0.0 2.6 0.00 0.00 0.00 38 1010.0
20260504220032 74 173 1.7 6.1 0.00 0.00 0.00 40 1010.0
20260504214533 75 211 0.9 2.6 0.00 0.00 0.00 41 1009.9
20260504213031 74 46 1.7 4.3 0.00 0.00 0.00 39 1009.9
20260504211538 74 206 0.9 1.7 0.00 0.00 0.00 40 1009.9
20260504210128 74 155 1.7 3.5 0.00 0.00 0.00 41 1010.1
20260504204601 74 202 0.0 2.6 0.00 0.00 0.00 43 1010.0
20260504203102 73 202 0.9 3.5 0.00 0.00 0.00 43 1010.3
20260504201557 74 292 0.0 1.7 0.00 0.00 0.00 42 1010.5
20260504200053 75 169 0.9 2.6 0.00 0.00 0.00 38 1010.4
20260504194554 74 90 0.9 2.6 0.00 0.00 0.00 39 1010.9
20260504193044 73 294 0.9 2.6 0.00 0.00 0.00 41 1011.1
20260504191549 72 123 0.0 2.6 0.00 0.00 0.00 38 1011.4
20260504190044 72 120 0.0 2.6 0.00 0.00 0.00 40 1012.0
20260504184546 71 118 0.9 4.3 0.00 0.00 0.00 42 1012.0
20260504183034 72 216 1.7 4.3 0.00 0.00 0.00 41 1012.2
20260504181534 71 5 0.9 1.7 0.00 0.00 0.00 47 1012.3
20260504180028 71 128 0.0 2.6 0.00 0.00 0.00 44 1012.6
20260504174525 70 355 0.0 2.6 0.00 0.00 0.00 47 1012.6
20260504173022 70 322 0.9 3.5 0.00 0.00 0.00 48 1012.9
20260504171516 67 111 0.0 1.7 0.00 0.00 0.00 49 1013.3